GW4504 Weather Reports


time (UTC)temp
C
wind
direction
speed
KPH
gust
KPH
rain 1hr
cm
rain 24hr
cm
rain mn
cm
humidity
%
barometer
mb
20260510143052 16 333 11.3 25.7 0.00 0.00 0.00 81 1014.5
20260510141537 16 355 11.3 22.5 0.00 0.00 0.00 82 1014.5
20260510140036 16 355 11.3 24.1 0.00 0.00 0.00 83 1014.9
20260510134537 16 349 8.0 14.5 0.00 0.00 0.00 84 1015.1
20260510133034 15 350 9.7 14.5 0.00 0.00 0.00 84 1015.2
20260510131544 15 311 1.6 6.4 0.00 0.00 0.00 84 1015.0
20260510130029 15 333 3.2 8.0 0.00 0.00 0.00 84 1014.4
20260510124525 15 28 3.2 9.7 0.00 0.00 0.00 85 1013.5
20260510123023 15 17 1.6 8.0 0.00 0.00 0.00 86 1013.1
20260510121521 15 336 6.4 12.9 0.00 0.00 0.00 88 1013.1
20260510120018 14 355 3.2 20.9 0.00 0.00 0.00 88 1012.2
20260510114515 14 150 0.0 0.0 0.00 0.00 0.00 88 1011.7
20260510113018 14 150 0.0 0.0 0.00 0.00 0.00 87 1011.5
20260510111512 14 150 0.0 8.0 0.00 0.00 0.00 86 1011.6
20260510110007 15 335 0.0 0.0 0.00 0.00 0.00 86 1010.8
20260510104505 15 335 0.0 0.0 0.00 0.00 0.00 85 1010.5
20260510103004 15 335 0.0 0.0 0.00 0.00 0.00 84 1010.7
20260510101502 15 335 0.0 0.0 0.00 0.00 0.00 84 1010.7
20260510100107 16 335 0.0 0.0 0.00 0.00 0.00 84 1010.5
20260510094557 16 335 0.0 0.0 0.00 0.03 0.00 82 1010.7
20260510093055 16 16 0.0 4.8 0.00 0.03 0.00 82 1010.7
20260510091556 16 16 0.0 0.0 0.00 0.03 0.00 82 1010.4
20260510090052 16 16 0.0 0.0 0.00 0.03 0.00 81 1010.0
20260510084549 17 17 0.0 0.0 0.00 0.03 0.00 80 1009.6
20260510083047 17 355 0.0 0.0 0.00 0.03 0.00 79 1009.1
20260510081544 17 355 0.0 0.0 0.00 0.03 0.00 78 1008.9
20260510080054 18 249 0.0 0.0 0.00 0.03 0.00 77 1008.9
20260510074547 18 249 0.0 0.0 0.00 0.03 0.00 77 1009.0
20260510073047 18 275 0.0 0.0 0.00 0.03 0.00 76 1009.2
20260510071537 18 162 0.0 0.0 0.00 0.03 0.00 75 1008.4
20260510070034 19 162 0.0 4.8 0.00 0.03 0.00 73 1008.1
20260510064545 20 162 0.0 0.0 0.00 0.03 0.00 68 1008.7
20260510063032 20 162 0.0 4.8 0.00 0.03 0.00 66 1008.7
20260510061532 21 162 0.0 14.5 0.00 0.03 0.00 66 1008.6
20260510060028 21 175 14.5 24.1 0.00 0.03 0.00 66 1007.7
20260510054526 20 192 9.7 12.9 0.00 0.03 0.00 71 1009.0
20260510053036 19 286 1.6 6.4 0.00 0.03 0.00 73 1010.8
20260510051517 19 304 0.0 0.0 0.00 0.03 0.00 74 1010.8
20260510050018 18 304 0.0 0.0 0.00 0.03 0.03 74 1010.7
20260510044510 18 317 0.0 0.0 0.00 0.03 0.03 75 1010.8
20260510043005 18 317 0.0 6.4 0.00 0.03 0.03 77 1010.7
20260510041600 18 322 0.0 8.0 0.00 0.03 0.03 77 1010.5
20260510040056 17 350 4.8 8.0 0.00 0.03 0.03 80 1009.9
20260510034613 18 338 0.0 0.0 0.00 0.03 0.03 78 1009.4
20260510033051 18 276 0.0 0.0 0.00 0.03 0.03 73 1009.0
20260510031543 18 276 0.0 0.0 0.00 0.03 0.03 71 1008.9
20260510030039 18 276 0.0 0.0 0.00 0.03 0.03 72 1009.2
20260510024534 19 276 0.0 0.0 0.00 0.03 0.03 72 1008.9
20260510023029 20 174 0.0 0.0 0.00 0.03 0.03 70 1008.3
20260510021530 21 174 0.0 0.0 0.00 0.03 0.03 62 1007.8
20260510020028 22 174 0.0 0.0 0.00 0.03 0.03 56 1007.6
20260510014516 22 174 0.0 0.0 0.00 0.03 0.03 55 1007.1
20260510013012 23 174 0.0 0.0 0.00 0.03 0.03 53 1007.0
20260510011508 23 174 0.0 0.0 0.00 0.03 0.03 53 1006.7
20260510010003 25 174 0.0 0.0 0.00 0.05 0.03 52 1006.5
20260510004558 25 174 0.0 0.0 0.00 0.05 0.03 52 1006.1
20260510003105 25 174 0.0 1.6 0.00 0.05 0.03 51 1005.9
20260510001551 26 178 1.6 8.0 0.00 0.05 0.03 47 1006.0
20260510000053 26 127 3.2 11.3 0.00 0.05 0.03 45 1006.0
20260509234541 26 143 6.4 14.5 0.00 0.08 0.03 44 1006.0
20260509233036 27 145 4.8 12.9 0.00 0.08 0.03 42 1006.1
20260509231534 27 172 9.7 16.1 0.00 0.08 0.03 42 1006.2
20260509230028 27 150 6.4 19.3 0.00 0.08 0.03 41 1006.1
20260509224523 27 147 6.4 14.5 0.00 0.66 0.03 40 1006.2
20260509223019 27 150 9.7 16.1 0.00 0.66 0.03 40 1006.2
20260509221516 27 164 6.4 16.1 0.00 0.66 0.03 43 1006.4
20260509220010 28 100 6.4 12.9 0.00 0.69 0.03 41 1006.5
20260509214505 27 184 1.6 12.9 0.00 0.69 0.03 38 1006.6
20260509213002 27 159 4.8 14.5 0.00 0.69 0.03 40 1006.7
20260509211605 27 156 4.8 12.9 0.00 0.69 0.03 43 1006.9
20260509210056 28 129 6.4 14.5 0.00 0.69 0.03 43 1007.1
20260509204548 27 200 6.4 11.3 0.00 0.69 0.03 39 1007.2
20260509203044 27 154 1.6 11.3 0.00 0.69 0.03 43 1007.4
20260509201539 27 136 3.2 16.1 0.00 0.69 0.03 45 1007.5
20260509200038 27 162 6.4 12.9 0.00 0.69 0.03 44 1007.7
20260509194544 27 162 6.4 14.5 0.00 0.69 0.03 44 1007.9
20260509193028 27 209 8.0 11.3 0.00 0.69 0.03 44 1007.9
20260509191521 27 200 9.7 14.5 0.00 0.69 0.03 50 1007.9
20260509190019 26 173 4.8 16.1 0.00 0.69 0.03 48 1007.9
20260509184512 26 154 8.0 14.5 0.00 0.69 0.03 48 1008.1
20260509183008 26 198 4.8 16.1 0.00 0.69 0.03 59 1008.2
20260509181504 26 170 8.0 16.1 0.00 0.69 0.03 55 1008.5
20260509180101 25 250 6.4 14.5 0.00 0.69 0.03 61 1008.7
20260509174556 25 202 1.6 14.5 0.00 0.69 0.03 64 1008.9
20260509173057 25 191 8.0 16.1 0.00 0.69 0.03 67 1009.0
20260509171547 24 178 8.0 14.5 0.00 0.69 0.03 71 1009.0
20260509170042 23 150 4.8 14.5 0.00 0.69 0.03 76 1009.0
20260509164537 23 212 6.4 11.3 0.00 0.69 0.03 79 1009.2
20260509163044 22 210 8.0 12.9 0.00 0.69 0.03 76 1009.0
20260509161540 22 173 8.0 12.9 0.00 0.69 0.03 83 1009.1
20260509160026 21 186 6.4 12.9 0.00 0.69 0.03 86 1009.0
20260509154521 21 154 8.0 12.9 0.00 0.69 0.03 88 1008.7
20260509153032 20 164 4.8 12.9 0.00 0.69 0.03 91 1008.7
20260509151513 19 139 4.8 11.3 0.00 0.69 0.03 94 1008.9
20260509150020 18 146 3.2 8.0 0.00 0.69 0.03 96 1009.1
20260509144503 17 149 3.2 9.7 0.00 0.69 0.03 96 1009.0